When you browse on this site, cookies collect data to enhance your experience and personalize the content and advertising you see.
Visit our Privacy Policy to learn more. By continuing to use the site, you agree to this use of cookies and data.
  • In Germany
  • List of Countries
  • For 7 days
  • Water Temperature
  • Weather Map
  • Weather Widgets
  • user-avatar
    Login

    Hourly Weather Kalgoorlie

    Today, 23 September, Monday

    Time Temperature Precipitation Wind Pressure Humidity
    00:00 +10°C° 0 mm 5 mps 740 mmHg 55%
    01:00 +10°C° 0 mm 5 mps 740 mmHg 58%
    02:00 +9°C° 0 mm 6 mps 739 mmHg 62%
    03:00 +8°C° 0 mm 5 mps 739 mmHg 66%
    04:00 +8°C° 0 mm 5 mps 740 mmHg 69%
    05:00 +7°C° 0 mm 4 mps 740 mmHg 73%
    06:00 +9°C° 0 mm 5 mps 740 mmHg 68%
    07:00 +10°C° 0 mm 6 mps 740 mmHg 64%
    08:00 +13°C° 0 mm 6 mps 740 mmHg 56%
    09:00 +15°C° 0 mm 5 mps 740 mmHg 48%
    10:00 +17°C° 0 mm 5 mps 740 mmHg 40%
    11:00 +20°C° 0 mm 5 mps 739 mmHg 32%
    12:00 +21°C° 0 mm 4 mps 739 mmHg 29%
    13:00 +22°C° 0 mm 4 mps 738 mmHg 26%
    14:00 +22°C° 0 mm 3 mps 737 mmHg 22%
    15:00 +22°C° 0 mm 3 mps 737 mmHg 21%
    16:00 +22°C° 0 mm 3 mps 737 mmHg 21%
    17:00 +22°C° 0 mm 3 mps 737 mmHg 20%
    18:00 +21°C° 0 mm 4 mps 737 mmHg 23%
    19:00 +19°C° 0 mm 4 mps 737 mmHg 25%
    20:00 +18°C° 0 mm 4 mps 738 mmHg 27%
    21:00 +17°C° 0 mm 4 mps 738 mmHg 29%
    22:00 +17°C° 0 mm 4 mps 737 mmHg 31%
    23:00 +15°C° 0 mm 4 mps 737 mmHg 33%

    Tomorrow, 24 September, Tuesday

    Time Temperature Precipitation Wind Pressure Humidity
    00:00 +15°C° 0 mm 4 mps 737 mmHg 35%
    01:00 +14°C° 0 mm 5 mps 737 mmHg 37%
    02:00 +14°C° 0 mm 5 mps 736 mmHg 39%
    03:00 +13°C° 0 mm 5 mps 736 mmHg 40%
    04:00 +13°C° 0 mm 5 mps 736 mmHg 42%
    05:00 +12°C° 0 mm 5 mps 736 mmHg 43%
    06:00 +14°C° 0 mm 6 mps 736 mmHg 40%
    07:00 +15°C° 0 mm 7 mps 736 mmHg 37%
    08:00 +17°C° 0 mm 7 mps 737 mmHg 34%
    09:00 +20°C° 0 mm 8 mps 736 mmHg 30%
    10:00 +22°C° 0 mm 8 mps 736 mmHg 25%
    11:00 +26°C° 0 mm 8 mps 736 mmHg 20%
    12:00 +27°C° 0 mm 8 mps 735 mmHg 18%
    13:00 +27°C° 0 mm 7 mps 734 mmHg 16%
    14:00 +28°C° 0 mm 7 mps 733 mmHg 14%
    15:00 +28°C° 0 mm 6 mps 733 mmHg 15%
    16:00 +27°C° 0 mm 5 mps 733 mmHg 16%
    17:00 +27°C° 0 mm 5 mps 733 mmHg 17%
    18:00 +25°C° 0 mm 4 mps 733 mmHg 19%
    19:00 +23°C° 0 mm 4 mps 733 mmHg 21%
    20:00 +21°C° 0 mm 4 mps 733 mmHg 24%
    21:00 +20°C° 0 mm 4 mps 733 mmHg 25%
    22:00 +20°C° 0 mm 4 mps 733 mmHg 27%
    23:00 +19°C° 0 mm 5 mps 733 mmHg 28%

    Day after tomorrow, 25 September, Wednesday

    Time Temperature Precipitation Wind Pressure Humidity
    00:00 +19°C° 0 mm 5 mps 732 mmHg 31%
    01:00 +19°C° 0 mm 5 mps 732 mmHg 34%
    02:00 +17°C° 0 mm 5 mps 732 mmHg 36%
    03:00 +17°C° 0 mm 5 mps 732 mmHg 38%
    04:00 +17°C° 0 mm 4 mps 732 mmHg 39%
    05:00 +17°C° 0 mm 4 mps 732 mmHg 41%
    06:00 +19°C° 0 mm 5 mps 732 mmHg 40%
    07:00 +21°C° 0 mm 6 mps 732 mmHg 40%
    08:00 +22°C° 0 mm 6 mps 732 mmHg 39%
    09:00 +24°C° 0 mm 7 mps 732 mmHg 34%
    10:00 +27°C° 0 mm 7 mps 732 mmHg 29%
    11:00 +29°C° 0 mm 7 mps 732 mmHg 24%
    12:00 +30°C° 0 mm 7 mps 731 mmHg 22%
    13:00 +30°C° 0 mm 6 mps 731 mmHg 20%
    14:00 +32°C° 0 mm 6 mps 730 mmHg 18%
    15:00 +32°C° 0 mm 5 mps 730 mmHg 18%
    16:00 +30°C° 0 mm 5 mps 730 mmHg 19%
    17:00 +30°C° 0 mm 4 mps 730 mmHg 19%
    18:00 +28°C° 0 mm 4 mps 731 mmHg 20%
    19:00 +26°C° 0 mm 4 mps 731 mmHg 21%
    20:00 +23°C° 0 mm 5 mps 731 mmHg 22%
    21:00 +22°C° 0 mm 5 mps 731 mmHg 23%
    22:00 +21°C° 0 mm 5 mps 731 mmHg 23%
    23:00 +19°C° 0 mm 5 mps 731 mmHg 24%

    26 September, Thursday

    Time Temperature Precipitation Wind Pressure Humidity
    00:00 +17°C° 0 mm 5 mps 731 mmHg 34%
    01:00 +16°C° 0 mm 5 mps 731 mmHg 44%
    02:00 +15°C° 0 mm 4 mps 731 mmHg 55%
    03:00 +14°C° 0 mm 4 mps 731 mmHg 59%
    04:00 +13°C° 0 mm 4 mps 731 mmHg 64%
    05:00 +13°C° 0 mm 4 mps 731 mmHg 68%
    06:00 +14°C° 0 mm 4 mps 731 mmHg 61%
    07:00 +15°C° 0 mm 4 mps 732 mmHg 54%
    08:00 +18°C° 0 mm 4 mps 732 mmHg 47%
    09:00 +20°C° 0 mm 4 mps 732 mmHg 40%
    10:00 +24°C° 0 mm 3 mps 732 mmHg 33%
    11:00 +26°C° 0 mm 3 mps 732 mmHg 26%
    12:00 +27°C° 0 mm 2 mps 731 mmHg 23%
    13:00 +28°C° 0 mm 1 mps 731 mmHg 20%
    14:00 +29°C° 0 mm 1 mps 730 mmHg 16%
    15:00 +29°C° 0 mm 1 mps 730 mmHg 16%
    16:00 +29°C° 0 mm 1 mps 730 mmHg 16%
    17:00 +29°C° 0 mm 1 mps 730 mmHg 16%
    18:00 +27°C° 0 mm 2 mps 730 mmHg 19%
    19:00 +25°C° 0 mm 2 mps 731 mmHg 21%
    20:00 +23°C° 0 mm 2 mps 731 mmHg 23%
    21:00 +21°C° 0 mm 4 mps 731 mmHg 37%
    22:00 +18°C° 0 mm 7 mps 731 mmHg 50%
    23:00 +16°C° 0 mm 9 mps 731 mmHg 64%

    27 September, Friday

    Time Temperature Precipitation Wind Pressure Humidity
    00:00 +15°C° 0 mm 8 mps 731 mmHg 66%
    01:00 +15°C° 0 mm 7 mps 731 mmHg 68%
    02:00 +14°C° 0 mm 6 mps 731 mmHg 70%
    03:00 +14°C° 0 mm 6 mps 731 mmHg 71%
    04:00 +13°C° 0 mm 6 mps 731 mmHg 71%
    05:00 +13°C° 0 mm 6 mps 731 mmHg 72%
    06:00 +15°C° 0 mm 6 mps 731 mmHg 66%
    07:00 +16°C° 0 mm 7 mps 731 mmHg 61%
    08:00 +18°C° 0 mm 7 mps 731 mmHg 55%
    09:00 +22°C° 0.1 mm 7 mps 731 mmHg 47%
    10:00 +26°C° 0.1 mm 8 mps 730 mmHg 39%
    11:00 +29°C° 0.1 mm 8 mps 730 mmHg 30%
    12:00 +31°C° 0 mm 8 mps 729 mmHg 28%
    13:00 +32°C° 0 mm 8 mps 728 mmHg 26%
    14:00 +33°C° 0 mm 9 mps 727 mmHg 24%
    15:00 +31°C° 0 mm 9 mps 727 mmHg 27%
    16:00 +29°C° 0 mm 10 mps 727 mmHg 29%
    17:00 +28°C° 0 mm 11 mps 727 mmHg 32%
    18:00 +26°C° 0 mm 10 mps 727 mmHg 39%
    19:00 +23°C° 0 mm 9 mps 727 mmHg 46%
    20:00 +21°C° 0 mm 8 mps 727 mmHg 53%
    21:00 +21°C° 0 mm 7 mps 727 mmHg 54%
    22:00 +20°C° 0 mm 7 mps 727 mmHg 56%
    23:00 +20°C° 0 mm 7 mps 727 mmHg 58%

    28 September, Saturday

    Time Temperature Precipitation Wind Pressure Humidity
    00:00 +19°C° 0 mm 6 mps 727 mmHg 59%
    01:00 +17°C° 0 mm 5 mps 727 mmHg 60%
    02:00 +18°C° 0 mm 4 mps 727 mmHg 62%
    03:00 +17°C° 0 mm 4 mps 727 mmHg 66%
    04:00 +15°C° 0 mm 5 mps 727 mmHg 70%
    05:00 +14°C° 0 mm 5 mps 728 mmHg 75%
    06:00 +15°C° 0 mm 5 mps 728 mmHg 72%
    07:00 +16°C° 0 mm 5 mps 729 mmHg 69%
    08:00 +17°C° 0 mm 6 mps 729 mmHg 66%
    09:00 +20°C° 0 mm 5 mps 729 mmHg 58%
    10:00 +22°C° 0 mm 5 mps 730 mmHg 50%
    11:00 +25°C° 0 mm 5 mps 730 mmHg 42%
    12:00 +27°C° 0 mm 5 mps 730 mmHg 37%
    13:00 +28°C° 0 mm 5 mps 729 mmHg 32%
    14:00 +29°C° 0 mm 5 mps 729 mmHg 27%
    15:00 +28°C° 0 mm 5 mps 729 mmHg 28%
    16:00 +28°C° 0 mm 5 mps 729 mmHg 29%
    17:00 +27°C° 0 mm 5 mps 729 mmHg 30%
    18:00 +26°C° 0 mm 6 mps 730 mmHg 39%
    19:00 +23°C° 0 mm 6 mps 730 mmHg 47%
    20:00 +21°C° 0 mm 6 mps 731 mmHg 56%
    21:00 +20°C° 0 mm 6 mps 731 mmHg 60%
    22:00 +19°C° 0 mm 6 mps 731 mmHg 64%
    23:00 +19°C° 0 mm 6 mps 731 mmHg 68%
    Show more